Weather Roundup
Issued by NWS Springfield, MO

Home | Current Version | Previous Version | Text Only | Print | Product List | Glossary On
Versions: 1 2 3 4 5 6 7 8 9 10 11 12 13 14 15 16 17 18 19 20 21 22 23 24 25 26 27 28 29 30 31 32 33 34 35 36 37 38 39 40 41 42 43 44 45 46 47 48 49 50
000
NZUS99 KSGF 312107
HRRSGF

HOURLY WEATHER
NATIONAL WEATHER SERVICE SPRINGFIELD MO
400 PM CDT FRI JUL 31 2015

......SGF CWA......

CITY           SKY/WX    TMP DP  RH WIND       PRES   REMARKS
SPRINGFIELD    SUNNY     89  56  32 W7        30.12F
JOPLIN         SUNNY     91  63  39 VRB6      30.10F HX  92
WEST PLAINS    SUNNY     88  57  34 W3        30.13F
ROLLA          SUNNY     89  56  32 W12G21    30.09F
OSAGE BEACH    SUNNY     90  63  40 NW6       30.10F HX  90
BRANSON        MOSUNNY   90  57  33 SW6       30.14F

......SURROUNDING SGF CWA......

CITY           SKY/WX    TMP DP  RH WIND       PRES   REMARKS
CHANUTE        SUNNY     90  67  46 CALM      30.09F HX  93
PARSONS        SUNNY     88  73  61 S3        30.10F HX  95
COFFEYVILLE    PTSUNNY   90  72  55 VRB7      30.08F HX  97
EMPORIA        SUNNY     90  66  45 VRB3      30.10F HX  92
GROVE OK       MOSUNNY   90  68  48 CALM      30.11F HX  93
ROGERS AR      SUNNY     89  56  32 S8        30.14F
SILOAM SPRINGS SUNNY     88  63  42 SW7       30.12F
HARRISON AR    SUNNY     90  53  28 CALM      30.14F
NEAR YELLVILLE SUNNY     90  57  33 NE7       30.10S

......KANSAS AND MISSOURI......

CITY           SKY/WX    TMP DP  RH WIND       PRES   REMARKS
KANSAS CTY INT MOSUNNY   87  69  54 W6        30.10F HX  91
DOWNTOWN KC    SUNNY     91  68  46 NW6       30.07F HX  95
COLUMBIA       SUNNY     89  64  43 W6        30.09F HX  90
SEDALIA        SUNNY     91  58  32 W5        30.09F HX  90
ST JOSEPH      SUNNY     88  74  63 W6        30.08F HX  96
ST LOUIS       MOSUNNY   92  62  36 N8        30.05F HX  92
SPIRIT OF STL  MOSUNNY   92  60  34 NW12      30.04F HX  91
KIRKSVILLE     SUNNY     88  66  48 W7        30.08F HX  90
WICHITA        MOSUNNY   91  67  44 NW3       30.10F HX  94
TOPEKA         SUNNY     89  66  46 VRB3      30.09F HX  91
OLATHE         SUNNY     88  62  41 MISG      30.09F

......TENNESSEE......

CITY           SKY/WX    TMP DP  RH WIND       PRES   REMARKS
MEMPHIS        MOSUNNY   93  63  36 N12G18    30.05F HX  94
NASHVILLE      MOSUNNY   90  60  36 N12       30.03F

......ARKANSAS.......

CITY           SKY/WX    TMP DP  RH WIND       PRES   REMARKS
FAYETTEVILLE   SUNNY     87  60  40 MISG      30.13F
FT SMITH       MOSUNNY   92  54  27 NE8       30.07F HX  90
LITTLE ROCK    MOSUNNY   93  63  36 E8        30.07F HX  94

......OKLAHOMA.......

CITY           SKY/WX    TMP DP  RH WIND       PRES   REMARKS
TULSA          PTSUNNY   91  72  53 E13       30.07F HX  98
PONCA CITY     PTSUNNY   91  73  55 NE5       30.07F HX  99
MCALESTER      MOSUNNY   90  67  46 E6        30.08F HX  93
OKLAHOMA CITY  TSTM      83  76  79 VRB6      30.09F HX  91

......IOWA............

CITY           SKY/WX    TMP DP  RH WIND       PRES   REMARKS
DES MOINES     MOSUNNY   89  65  44 N9        30.06F HX  91
QUAD CITIES    SUNNY     89  58  34 NW18G26   30.01F

......ILLINOIS........

CITY           SKY/WX    TMP DP  RH WIND       PRES   REMARKS
QUINCY         SUNNY     87  63  44 W9        30.05F
CHICAGO        MOSUNNY   86  50  28 NW17G29   29.93F




USA.gov is the U.S. government's official web portal to all federal, state and local government web resources and services.